EW6614 Weather Reports


time (UTC)temp
C
wind
direction
speed
KPH
gust
KPH
rain 1hr
cm
rain 24hr
cm
rain mn
cm
humidity
%
barometer
mb
20260506110057 22 0 0.0 8.0 0.00 0.00 0.00 50 1008.4
20260506110035 22 177 0.0 4.8 0.00 0.00 0.00 61 1008.3
20260506104603 22 202 3.2 9.7 0.00 0.00 0.00 49 1008.4
20260506104535 22 211 3.2 9.7 0.00 0.00 0.00 61 1008.2
20260506103105 22 196 1.6 9.7 0.00 0.00 0.00 50 1008.4
20260506103044 22 192 3.2 8.0 0.00 0.00 0.00 61 1008.3
20260506101553 22 180 3.2 12.9 0.00 0.00 0.00 50 1008.3
20260506101532 22 180 1.6 11.3 0.00 0.00 0.00 62 1008.2
20260506100107 22 182 1.6 8.0 0.00 0.00 0.00 51 1008.1
20260506100032 22 182 1.6 8.0 0.00 0.00 0.00 63 1008.0
20260506094604 23 0 3.2 11.3 0.00 0.00 0.00 51 1008.3
20260506094533 23 217 3.2 9.7 0.00 0.00 0.00 63 1008.0
20260506093055 23 0 3.2 9.7 0.00 0.00 0.00 52 1008.1
20260506093028 23 165 3.2 9.7 0.00 0.00 0.00 63 1008.0
20260506091558 23 183 3.2 14.5 0.00 0.00 0.00 52 1008.2
20260506091531 23 183 1.6 14.5 0.00 0.00 0.00 64 1008.0
20260506090054 23 190 4.8 12.9 0.00 0.00 0.00 52 1008.1
20260506090041 23 192 4.8 11.3 0.00 0.00 0.00 64 1008.0
20260506084600 23 157 1.6 11.3 0.00 0.00 0.00 52 1008.1
20260506084526 23 176 1.6 8.0 0.00 0.00 0.00 64 1008.0
20260506083057 23 0 3.2 17.7 0.00 0.00 0.00 52 1008.2
20260506083026 23 183 3.2 17.7 0.00 0.00 0.00 64 1008.0
20260506081605 23 158 4.8 14.5 0.00 0.00 0.00 53 1008.0
20260506081524 23 191 3.2 12.9 0.00 0.00 0.00 64 1007.9
20260506073053 23 131 6.4 17.7 0.00 0.00 0.00 54 1008.1
20260506073021 23 191 3.2 17.7 0.00 0.00 0.00 65 1008.2
20260506071558 23 178 3.2 9.7 0.00 0.00 0.00 54 1008.6
20260506071519 23 178 3.2 9.7 0.00 0.00 0.00 65 1008.4
20260506061553 23 161 3.2 14.5 0.00 0.00 0.00 53 1008.7
20260506061524 23 161 3.2 14.5 0.00 0.00 0.00 65 1008.5
20260506050107 23 194 6.4 17.7 0.00 0.00 0.00 66 1007.9
20260506044555 23 178 8.0 19.3 0.00 0.00 0.00 55 1008.1
20260506044552 23 195 11.3 16.1 0.00 0.00 0.00 67 1008.0
20260506043056 23 194 6.4 16.1 0.00 0.00 0.00 56 1008.2
20260506043054 23 194 6.4 16.1 0.00 0.00 0.00 67 1008.2
20260506041553 23 205 9.7 22.5 0.00 0.00 0.00 56 1008.2
20260506041551 23 205 6.4 20.9 0.00 0.00 0.00 67 1008.0
20260506040058 24 166 3.2 17.7 0.00 0.00 0.00 56 1008.1
20260506040056 24 167 4.8 16.1 0.00 0.00 0.00 67 1007.9
20260506034612 24 194 8.0 20.9 0.00 0.00 0.00 56 1007.9
20260506034551 24 192 8.0 20.9 0.00 0.00 0.00 67 1007.8
20260506033054 24 206 6.4 16.1 0.00 0.00 0.00 55 1008.1
20260506033049 24 210 8.0 16.1 0.00 0.00 0.00 67 1008.0
20260506031556 24 240 6.4 17.7 0.00 0.00 0.00 55 1007.9
20260506031551 24 239 6.4 16.1 0.00 0.00 0.00 67 1007.8
20260506030054 24 184 6.4 14.5 0.00 0.00 0.00 56 1007.6
20260506024556 24 195 9.7 22.5 0.00 0.00 0.00 55 1007.3
20260506023101 24 185 6.4 16.1 0.00 0.00 0.00 56 1007.0
20260506023046 24 185 8.0 12.9 0.00 0.00 0.00 67 1006.7
20260506021559 24 204 8.0 16.1 0.00 0.00 0.00 67 1006.7
20260506021553 24 204 8.0 17.7 0.00 0.00 0.00 56 1006.9
20260506020056 24 196 6.4 14.5 0.00 0.00 0.00 56 1006.9
20260506020045 24 196 4.8 14.5 0.00 0.00 0.00 67 1006.6
20260506014554 25 170 4.8 16.1 0.00 0.00 0.00 56 1006.5
20260506014544 25 171 4.8 16.1 0.00 0.00 0.00 68 1006.3
20260506013108 25 186 4.8 17.7 0.00 0.00 0.00 56 1006.4
20260506013053 25 184 4.8 16.1 0.00 0.00 0.00 68 1006.1
20260506011559 25 184 6.4 14.5 0.00 0.00 0.00 57 1006.2
20260506011552 25 184 6.4 11.3 0.00 0.00 0.00 69 1005.9
20260506010119 25 196 8.0 16.1 0.00 0.00 0.00 58 1005.9
20260506010042 25 200 8.0 16.1 0.00 0.00 0.00 70 1005.7
20260506004553 25 207 6.4 16.1 0.00 0.00 0.00 59 1005.7
20260506004541 25 207 6.4 12.9 0.00 0.00 0.00 70 1005.4
20260506003051 25 194 8.0 22.5 0.00 0.00 0.00 59 1005.5
20260506003041 25 196 8.0 22.5 0.00 0.00 0.00 70 1005.1
20260506001602 26 185 8.0 19.3 0.00 0.00 0.00 59 1005.5
20260506001543 26 185 9.7 17.7 0.00 0.00 0.00 70 1005.2
20260506000055 26 178 8.0 19.3 0.00 0.00 0.00 58 1005.6
20260506000045 26 171 9.7 17.7 0.00 0.00 0.00 70 1005.2
20260505234555 26 185 6.4 24.1 0.00 0.00 0.00 57 1005.6
20260505234539 26 152 8.0 14.5 0.00 0.00 0.00 69 1005.3
20260505233139 26 196 9.7 16.1 0.00 0.00 0.00 69 1005.3
20260505233105 26 176 9.7 17.7 0.00 0.00 0.00 57 1005.6
20260505231558 27 175 6.4 19.3 0.00 0.00 0.00 57 1005.7
20260505231550 27 158 6.4 17.7 0.00 0.00 0.00 68 1005.3
20260505230056 27 193 9.7 20.9 0.00 0.00 0.00 56 1005.8
20260505230038 27 201 8.0 20.9 0.00 0.00 0.00 68 1005.5
20260505224554 27 204 11.3 24.1 0.00 0.00 0.00 55 1005.8
20260505224537 27 150 9.7 22.5 0.00 0.00 0.00 67 1005.4
20260505223054 27 175 6.4 19.3 0.00 0.00 0.00 55 1005.7
20260505223036 27 175 8.0 16.1 0.00 0.00 0.00 66 1005.4
20260505221557 27 130 8.0 24.1 0.00 0.00 0.00 54 1005.7
20260505221537 27 214 11.3 20.9 0.00 0.00 0.00 66 1005.4
20260505220055 27 218 12.9 25.7 0.00 0.00 0.00 54 1005.7
20260505220037 27 214 11.3 24.1 0.00 0.00 0.00 65 1005.4
20260505214610 28 175 11.3 24.1 0.00 0.00 0.00 54 1005.6
20260505214556 28 177 12.9 22.5 0.00 0.00 0.00 65 1005.4
20260505213057 27 175 11.3 25.7 0.00 0.00 0.00 54 1005.6
20260505213031 27 182 11.3 27.4 0.00 0.00 0.00 66 1005.4
20260505211553 27 199 9.7 24.1 0.00 0.00 0.00 54 1005.7
20260505211533 27 187 11.3 24.1 0.00 0.00 0.00 66 1005.6
20260505210054 27 156 14.5 38.6 0.00 0.00 0.00 54 1005.8
20260505210028 27 173 14.5 35.4 0.00 0.00 0.00 65 1005.7
20260505204557 27 182 12.9 29.0 0.00 0.00 0.00 54 1006.0
20260505204525 27 171 12.9 29.0 0.00 0.00 0.00 66 1006.0
20260505203052 27 163 14.5 30.6 0.00 0.00 0.00 54 1006.5
20260505203023 27 183 16.1 29.0 0.00 0.00 0.00 65 1006.2
20260505201557 27 144 11.3 41.8 0.00 0.00 0.00 54 1006.5
20260505201520 27 123 9.7 40.2 0.00 0.00 0.00 66 1006.4
20260505200054 27 136 9.7 27.4 0.00 0.00 0.00 54 1006.8
20260505200019 27 187 9.7 25.7 0.00 0.00 0.00 65 1006.5
20260505194557 26 198 12.9 25.7 0.00 0.00 0.00 54 1006.9
20260505194516 26 171 12.9 22.5 0.00 0.00 0.00 65 1006.8
20260505193055 27 152 6.4 17.7 0.00 0.00 0.00 53 1007.0
20260505193015 27 189 8.0 27.4 0.00 0.00 0.00 65 1006.9
20260505191607 26 188 11.3 24.1 0.00 0.00 0.00 53 1007.2
20260505191515 26 169 12.9 24.1 0.00 0.00 0.00 65 1007.3
20260505190023 26 184 9.7 29.0 0.00 0.00 0.00 65 1007.2
20260505184604 26 202 12.9 25.7 0.00 0.00 0.00 52 1007.3
20260505184512 26 130 14.5 20.9 0.00 0.00 0.00 64 1007.3
20260505183124 25 160 11.3 25.7 0.00 0.00 0.00 52 1007.5
20260505183009 25 201 11.3 27.4 0.00 0.00 0.00 64 1007.6
20260505181558 25 240 9.7 22.5 0.00 0.00 0.00 52 1007.4
20260505181506 25 155 9.7 19.3 0.00 0.00 0.00 64 1007.5
20260505180059 25 184 11.3 24.1 0.00 0.00 0.00 52 1007.5
20260505180008 25 184 9.7 22.5 0.00 0.00 0.00 64 1007.4
20260505174555 25 182 11.3 20.9 0.00 0.00 0.00 52 1007.6
20260505174507 25 171 11.3 17.7 0.00 0.00 0.00 63 1007.7
20260505173059 24 157 9.7 17.7 0.00 0.00 0.00 52 1007.7
20260505173002 25 196 9.7 16.1 0.00 0.00 0.00 63 1007.7
20260505171601 24 200 6.4 17.7 0.00 0.00 0.00 52 1007.8
20260505171559 24 201 8.0 16.1 0.00 0.00 0.00 63 1007.8
20260505170056 23 171 6.4 14.5 0.00 0.00 0.00 62 1007.9
20260505170054 23 171 6.4 19.3 0.00 0.00 0.00 51 1007.8
20260505164601 23 167 9.7 16.1 0.00 0.00 0.00 62 1008.0
20260505164555 23 167 6.4 14.5 0.00 0.00 0.00 51 1007.9
20260505163056 23 207 6.4 19.3 0.00 0.00 0.00 51 1008.0
20260505163050 23 207 6.4 12.9 0.00 0.00 0.00 62 1007.9
20260505161619 23 0 3.2 14.5 0.00 0.00 0.00 51 1008.3
20260505161547 23 182 3.2 14.5 0.00 0.00 0.00 62 1008.1
20260505153104 22 171 4.8 22.5 0.00 0.00 0.00 51 1007.8
20260505153035 22 159 4.8 19.3 0.00 0.00 0.00 62 1007.8
20260505151611 22 192 8.0 16.1 0.00 0.00 0.00 50 1008.0
20260505151532 22 183 8.0 14.5 0.00 0.00 0.00 62 1007.9
20260505124555 20 360 11.3 22.5 0.00 0.00 0.00 54 1007.4
20260505124523 20 360 9.7 19.3 0.00 0.00 0.00 65 1007.6
20260505123054 20 360 6.4 22.5 0.00 0.00 0.00 54 1007.2
20260505123027 20 360 8.0 22.5 0.00 0.00 0.00 65 1007.4
20260505121556 20 360 8.0 14.5 0.00 0.00 0.00 54 1007.4
20260505121521 20 360 6.4 14.5 0.00 0.00 0.00 65 1007.6
20260505120110 20 360 4.8 16.1 0.00 0.00 0.00 54 1007.3
20260505120029 20 360 6.4 16.1 0.00 0.00 0.00 65 1007.5
20260505114553 20 360 6.4 22.5 0.00 0.00 0.00 54 1007.2
20260505114519 20 360 8.0 22.5 0.00 0.00 0.00 65 1007.5
20260505113052 20 360 8.0 19.3 0.00 0.00 0.00 54 1007.2
20260505113012 20 360 11.3 22.5 0.00 0.00 0.00 65 1007.2
20260505111555 20 360 9.7 20.9 0.00 0.00 0.00 54 1007.1
20260505111516 20 360 9.7 20.9 0.00 0.00 0.00 65 1007.0